Regional Weather Roundup
Issued by NWS Kansas City/Pleasant Hill, MO

Home | Current Version | Previous Version | Text Only | Print | Product List | Glossary On
Versions: 1 2 3 4 5 6 7 8 9 10 11 12 13 14 15 16 17 18 19 20 21 22 23 24 25 26 27 28 29 30 31 32 33 34 35 36 37 38 39 40 41 42 43 44 45 46 47 48 49 50
000
ASUS43 KEAX 172111
RWREAX

WEATHER ROUNDUP FOR EASTERN KANSAS AND NORTHWEST MISSOURI
NATIONAL WEATHER SERVICE KANSAS CITY/PLEASANT HILL MO
400 PM CDT WED SEP 17 2014

KSZ040-057-103>105-MOZ028-029-037-043-172200-
...KANSAS CITY METROPOLITAN AREA...

CITY           SKY/WX    TMP DP  RH WIND       PRES   REMARKS
K.C. INTL      CLOUDY    73  67  81 E9        29.91F
K.C. DOWNTOWN  CLOUDY    74  66  76 E5        29.90S
LEES SUMMIT    CLOUDY    72  66  81 E5        29.92S
OLATHE - IXD   CLOUDY    75  67  76 E8        29.91S
OLATHE - OJC   CLOUDY    73  67  81 E7        29.90F
LAWRENCE       CLOUDY    76  66  71 SE8       29.89F

$$

MOZ001>008-011>017-020>025-030>033-038>040-044>046-053-054-172200-
...NORTHERN AND CENTRAL MISSOURI...

CITY           SKY/WX    TMP DP  RH WIND       PRES   REMARKS
ST. JOSEPH     PTSUNNY   78  65  63 SE5       29.89F
MOSBY          CLOUDY    72  64  78 SE5       29.91S
WHITEMAN AFB   CLOUDY    71  68  89 NE5       29.90F
CLINTON        CLOUDY    73  70  88 CALM      29.90F
SEDALIA        CLOUDY    73  67  81 N6        29.91F
WARSAW         NOT AVBL
MARSHALL       CLOUDY    72  68  88 CALM      29.93S
CHILLICOTHE      N/A     76  65  68 VRB3      29.92S
MOBERLY        CLOUDY    72  61  68 NE3       29.93F
KIRKSVILLE     CLOUDY    71  62  73 E9        29.94F

$$

MOZ041-047>049-056>058-063>065-088>090-097-172200-
...EASTERN AND SOUTHERN MISSOURI...

CITY           SKY/WX    TMP DP  RH WIND       PRES   REMARKS
ST. LOUIS INTL CLOUDY    66  58  75 E9        29.95F
SPIRIT OF STL  CLOUDY    67  59  75 CALM      29.93F
COLUMBIA       CLOUDY    66  63  90 NE6       29.92F
JEFFERSON CITY CLOUDY    70  65  84 NE6       29.90F
MEXICO         CLOUDY   N/A N/A N/A E6        29.94F
HANNIBAL       CLOUDY    70  57  64 SE6       29.94F
ROLLA          FOG       66  62  87 CALM      29.90F VSB 1/4
LEBANON        PTSUNNY   73  64  73 SW7       29.91F
OSAGE BEACH    MOSUNNY   75  64  69 W5        29.89F
SPRINGFIELD    MOSUNNY   68  63  84 SE9       29.91F
BRANSON        PTSUNNY   64  64 100 CALM      29.96R
NEVADA         CLOUDY    79  70  73 NE5       29.89F
JOPLIN         PTSUNNY   77  66  68 SE14      29.86F
WEST PLAINS    CLOUDY    63  60  90 SW13      29.95S

$$

IAZ060-094-KSZ022-034>040-054-083-096-NEZ052-066-093-172200-
...KANSAS...SOUTHEAST NEBRASKA AND IOWA...

CITY           SKY/WX    TMP DP  RH WIND       PRES   REMARKS
TOPEKA         CLOUDY    77  68  73 E9        29.90S
MANHATTAN      SUNNY     80  67  64 E10       29.88F
EMPORIA        SUNNY     81  69  67 NE10      29.87F
CHANUTE        MOSUNNY   89  69  51 CALM      29.84F HX  93
WICHITA        MOSUNNY   97  58  27 VRB6      29.81F HX  96
OMAHA          MOSUNNY   79  60  52 VRB5      29.89F
LINCOLN        SUNNY     79  63  57 S7        29.90F
FALLS CITY     MOSUNNY   79  65  62 E7        29.89F
LAMONI         SUNNY     75  58  55 CALM      29.92F
DES MOINES     PTSUNNY   75  57  53 SE7       29.92F

$$




USA.gov is the U.S. government's official web portal to all federal, state and local government web resources and services.